SCP
0 0 0 0 0 0 0 0 0 0 0 0 0 0 0 0 0 0 0 0 0 0 0 0 0 0 0 0 0 0 0 0 0 -0 0 0 0 0 0 0 0 0 0
0 0 0 0 0 0 0 0 0 0 0 0 0 0 0 0 0 0 0 0 0 0 0 0 0 0 0 0 0 0 0 0 0 0 -0 0 0 0 0 0 0 0 0
0 0 0 0 0 0 0 0 0 0 0 0 0 0 0 0 0 0 0 0 0 0 0 0 0 0 0 0 0 0 0 0 0 0 0 0 0 0 0 0 0 0 0
0 0 0 0 0 0 0 0 0 0 0 0 0 0 0 0 0 0 0 0 0 0 0 0 0 0 0 0 0 0 0 0 0 0 0 0 0 0 0 0 0 0 0
0 0 0 0 0 0 0 0 0 0 0 0 0 0 0 0 0 0 0 0 0 0 0 0 0 0 0 0 0 0 0 0 0 0 0 0 0 0 0 0 0 0 0
0 0 0 0 0 0 0 0 0 0 0 0 0 0 0 0 0 0 0 0 0 0 0 0 0 0 0 0 0 0 0 0 0 0 0 0 0 0 0 0 0 0 0
0 0 0 0 0 0 0 0 0 0 0 0 0 0 0 0 0 0 0 0 0 0 0 0 0 0 0 0 0 0 0 0 0 0 0 0 0 0 0 0 0 0 0
0 0 0 0 0 0 0 0 0 0 0 0 0 0 0 0 0 0 0 0 0 0 0 0 0 0 0 0 0 0 0 0 0 0 0 0 0 0 0 0 0 0 -0
0 0 0 0 0 0 0 0 0 0 0 0 0 0 0 0 0 0 0 0 0 0 0 0 0 0 0 0 0 0 0 0 0 0 0 0 0 0 0 0 0 0 -0
0 0 0 0 0 0 0 0 0 0 0 0 0 0 0 0 0 0 0 0 0 0 0 0 0 0 0 0 0 0 0 0 0 0 0 0 0 0 0 0 0 0 0
0 0 0 0 0 0 0 0 0 0 0 0 0 0 0 0 0 0 0 0 0 0 0 0 0 0 0 0 0 0 0 0 0 0 0 0 0 0 0 0 0 0 0
0 0 0 0 0 0 0 0 0 0 0 0 0 0 0 0 0 0 0 0 0 0 0 0 0 0 0 0 0 0 0 0 0 0 0 0 0 0 0 0 0 0 0
0 0 0 0 0 0 0 0 0 0 0 0 0 0 0 0 0 0 0 0 0 0 0 0 0 0 0 0 0 0 0 0 0 0 0 0 0 0 0 0 0 0 0
0 0 0 0 0 0 0 0 0 0 0 0 0 0 0 0 0 0 0 0 0 0 0 0 0 0 0 0 0 0 0 0 0 0 0 0 0 0 0 0 0 0 0
0 0 0 0 0 0 0 0 0 0 0 0 0 0 0 0 0 0 0 0 0 0 0 0 0 0 0 0 0 0 0 0 0 0 0 0 0 0 0 0 0 0 0
0 0 -0 0 0 0 0 0 0 0 0 0 0 0 0 0 0 0 0 0 0 0 0 0 0 0 0 0 0 0 0 0 0 0 0 0 0 0 0 0 0 0 0
0 0 0 0 0 0 0 0 0 0 0 0 0 0 0 0 0 0 0 0 0 0 0 0 0 0 0 0 0 0 0 0 0 0 0 0 0 0 0 0 0 0 -0
0 0 0 0 0 0 0 0 0 0 0 0 0 0 0 0 0 0 0 0 0 0 0 0 0 0 0 0 0 0 0 0 0 0 0 0 0 0 0 0 0 0 0
0 0 0 0 0 0 0 0 0 0 0 0 0 0 0 0 0 0 0 0 0 0 0 0 0 0 0 0 0 0 0 0 0 0 0 0 0 0 0 0 0 0 0
0 0 0 0 0 0 0 0 0 0 0 0 0 0 0 0 0 0 0 0 0 0 0 0 0 0 0 0 0 0 0 0 0 0 0 0 0 0 0 0 0 0 0
0 -0 0 0 0 0 0 0 0 0 0 0 0 0 0 0 0 0 0 0 0 0 0 0 0 0 0 0 0 0 0 0 0 0 0 0 0 0 0 0 0 0 0
-0 -0 -0 0 0 0 0 0 0 0 0 0 0 0 0 0 0 0 0 0 0 0 0 0 0 0 0 0 0 0 0 0 0 0 0 0 0 0 0 0 0 0 0
-0 -0 -0 -0 -0 -0 -0 0 0 0 0 0 0 0 0 0 0 0 0 0 0 0 0 0 0 0 0 0 0 0 0 0 0 0 0 0 0 0 0 0 0 0 0
-0 -0 -0 -0 -0 -0 -0 -0 -0 0 0 0 0 0 0 0 0 0 0 0 0 0 0 0 0 0 0 0 0 0 0 0 0 0 0 0 0 0 0 0 0 0 0
-0 -0 -0 -0 -0 -0 -0 -0 0 0 0 0 0 0 0 0 0 0 0 0 0 0 0 0 0 0 0 0 0 0 0 0 0 0 0 0 0 0 0 0 0 0 0
-0 -0 -0 -0 -0 -0 -0 -0 0 0 0 0 0 0 0 0 0 0 0 0 0 0 0 0 0 0 0 0 0 0 0 0 0 0 0 0 0 0 0 0 0 0 0
Wind_Speed_500mb
116 114 99 80 76 83 93 93 91 85 85 86 86 86 86 84 82 76 72 70 65 61 58 55 51 44 38 32 29 29 32 34 38 44 44 35 19 7 7 38 13 29 18
107 111 96 72 63 69 82 94 97 90 86 88 88 86 85 85 81 76 75 72 68 64 61 60 56 48 41 33 27 28 32 34 34 36 41 25 19 13 45 10 24 15 26
108 107 93 72 63 71 75 87 94 90 85 85 87 86 83 80 81 83 83 79 73 69 66 64 59 52 46 35 26 28 32 31 31 29 21 12 10 56 11 39 30 47 41
100 94 80 64 62 63 69 79 89 85 82 83 86 92 89 90 92 90 87 82 77 73 71 68 63 57 49 38 30 28 35 34 31 30 28 25 29 21 35 42 58 48 55
92 85 69 51 50 58 67 73 81 79 80 82 83 87 88 84 84 87 85 81 80 78 74 71 67 63 55 44 35 28 34 35 33 33 32 30 27 27 26 62 73 65 61
77 72 41 37 49 58 63 70 76 77 78 77 83 85 82 84 87 88 86 86 85 83 79 74 71 65 59 49 38 31 33 34 33 33 34 35 32 31 32 45 59 64 71
73 68 40 44 53 56 62 70 75 77 77 79 80 81 83 86 86 87 85 86 89 91 87 80 77 72 61 52 43 35 33 36 36 34 34 34 32 32 37 45 57 60 78
77 60 38 44 48 56 64 70 73 76 82 83 83 83 83 85 86 87 87 88 87 86 84 80 77 72 65 58 48 38 34 37 39 38 36 33 32 32 34 43 53 73 60
68 47 46 46 48 55 62 66 70 74 82 88 89 87 86 90 90 86 88 89 84 84 79 79 78 74 69 61 53 43 36 40 43 42 39 35 35 35 36 41 46 51 52
41 41 37 37 41 46 54 59 67 76 84 89 90 91 90 91 90 86 87 89 89 86 79 82 81 76 70 63 55 47 41 44 46 46 41 38 37 37 39 43 47 50 58
10 11 18 28 33 40 50 57 70 82 85 84 91 97 98 99 98 93 89 90 90 88 83 85 84 79 72 65 59 53 49 49 48 47 42 40 36 37 40 46 51 56 60
17 14 19 23 33 45 55 61 70 80 78 80 91 95 103 106 107 104 98 95 94 88 84 87 86 82 76 70 65 59 54 52 49 46 43 39 37 39 42 49 55 59 61
55 54 73 69 66 75 80 74 80 76 73 87 94 97 101 109 113 112 107 102 98 90 89 91 91 88 80 75 69 63 58 55 51 46 43 39 37 40 46 50 57 60 65
82 77 83 88 86 85 98 89 77 71 80 87 93 96 100 104 108 111 111 108 103 94 95 96 93 90 83 79 75 68 61 56 52 47 44 40 37 41 47 55 58 59 63
66 81 90 85 84 86 89 79 77 84 83 89 99 98 94 98 106 107 103 105 103 96 93 94 96 93 91 87 79 72 63 59 54 49 44 42 38 43 50 54 55 57 61
55 64 75 89 83 91 102 110 106 98 100 104 106 104 103 99 105 99 100 100 96 92 91 97 100 99 96 88 81 74 66 60 55 50 47 40 41 42 47 50 46 48 50
66 73 81 78 76 87 94 105 105 107 98 106 109 107 103 105 100 97 96 96 93 91 95 103 104 102 95 88 84 76 66 60 54 51 47 39 40 44 46 43 47 43 43
82 80 86 94 95 81 79 81 92 92 94 98 101 100 102 99 92 94 94 91 92 94 99 104 104 101 97 93 86 78 67 59 54 51 42 39 41 42 39 44 47 50 53
71 76 90 91 90 89 82 57 59 71 75 78 79 85 91 91 92 93 93 92 94 96 100 101 103 102 96 92 84 74 65 57 49 45 44 39 41 33 38 41 46 53 63
70 85 86 95 93 86 93 86 54 45 55 63 72 80 85 88 84 86 88 88 89 92 99 99 100 98 96 89 80 74 62 51 51 51 42 41 31 36 34 35 43 62 69
89 86 92 86 84 88 82 80 75 59 50 53 61 69 73 77 77 78 78 82 89 94 98 96 97 99 93 81 75 72 58 56 56 49 42 31 29 32 34 32 47 55 57
83 77 85 89 88 71 77 83 75 65 56 51 50 55 60 65 70 73 75 79 85 89 95 95 96 97 90 81 76 69 55 61 51 46 37 27 28 29 29 37 42 45 49
87 82 76 86 89 77 70 72 77 70 61 55 51 46 50 58 60 64 72 77 82 88 94 97 102 100 94 85 80 65 63 65 56 50 35 34 28 21 24 32 39 41 42
88 91 90 89 92 83 83 83 80 62 67 67 59 53 50 53 53 57 65 71 83 92 96 101 106 106 99 89 79 68 60 53 50 44 31 28 21 19 20 28 32 34 40
98 92 95 100 98 86 81 80 84 73 70 74 69 66 70 71 68 64 64 72 82 91 95 103 110 111 103 91 71 65 64 55 45 37 33 26 19 22 25 27 30 35 41
95 99 100 98 100 93 90 84 80 76 76 75 78 75 72 80 78 78 79 84 91 92 95 97 104 103 91 79 71 64 56 48 48 37 30 22 22 24 27 29 30 34 42
Wind_Direction_500mb
272 274 275 274 264 256 250 243 237 235 228 224 223 223 225 225 225 224 226 227 228 229 230 231 233 235 242 254 269 284 292 297 304 310 310 320 313 266 132 319 316 320 348
271 274 276 275 264 253 249 242 234 234 228 226 226 226 227 226 228 226 228 228 229 229 230 231 231 232 237 249 266 283 288 293 306 322 330 329 316 211 312 290 321 324 323
271 273 276 272 262 253 246 243 235 231 227 225 223 225 226 227 226 225 226 227 227 228 229 230 230 231 234 241 257 282 289 294 306 318 325 327 300 317 265 315 327 323 320
273 275 277 269 258 254 244 238 232 229 226 226 226 226 226 224 226 228 229 227 226 228 229 230 230 231 233 237 246 266 283 287 296 307 311 306 305 318 314 308 319 319 319
278 278 278 266 251 247 244 235 226 225 227 228 229 229 228 230 234 233 231 229 229 228 230 230 230 230 232 234 242 257 276 279 287 299 304 300 298 297 287 306 318 317 322
278 281 259 238 238 239 238 230 224 224 228 229 229 229 230 231 232 233 230 229 230 229 229 230 231 231 232 235 241 251 268 273 279 289 297 299 299 300 293 292 302 311 318
262 279 254 236 228 231 231 226 223 225 227 226 227 227 229 232 233 236 234 232 230 230 228 228 229 231 233 235 237 245 262 275 282 290 292 292 289 294 297 297 304 308 314
278 266 242 244 229 227 225 226 226 229 227 224 223 224 226 231 234 237 237 236 237 237 233 230 229 228 230 232 235 245 260 272 280 285 286 280 281 285 292 300 309 316 314
275 266 246 233 223 230 231 231 231 231 230 229 226 225 228 231 232 235 237 238 239 239 236 235 232 229 229 231 233 239 253 268 276 278 278 277 280 285 292 299 304 308 309
279 258 232 228 232 240 242 239 237 237 236 232 233 232 230 232 234 235 237 238 239 239 235 233 232 230 230 230 231 237 245 256 264 272 272 271 276 285 292 297 300 301 300
311 230 227 236 247 251 247 242 241 239 238 237 238 238 235 236 235 236 236 238 239 240 235 231 230 230 231 230 232 237 245 253 260 265 266 267 273 281 289 293 297 297 297
238 264 284 277 274 266 253 251 245 243 241 244 244 244 242 242 240 238 237 237 237 236 235 230 229 230 229 230 233 237 244 251 257 259 261 263 271 280 285 290 293 294 296
274 286 292 288 284 279 272 262 248 239 243 246 247 245 246 246 244 242 241 239 237 234 231 229 229 229 228 229 233 236 242 250 254 255 256 257 264 277 286 291 293 295 295
278 286 286 284 284 284 278 264 255 254 254 251 250 246 247 249 248 245 242 239 238 234 231 230 228 228 228 229 231 234 239 247 251 253 252 256 267 279 289 292 293 293 297
280 285 281 281 282 279 270 257 259 255 255 253 249 247 251 250 249 245 243 240 237 234 231 228 226 227 227 228 229 232 238 243 247 250 250 257 271 281 288 291 289 295 296
330 326 307 294 283 275 272 272 269 269 265 253 252 248 247 247 246 243 240 237 233 231 229 226 226 225 226 226 228 232 236 241 245 248 249 258 270 285 288 284 289 289 295
2 354 349 345 320 294 285 278 272 271 264 257 252 247 247 244 243 241 236 233 231 228 227 225 225 224 225 225 228 233 235 239 244 248 252 262 279 283 281 284 288 291 285
339 337 335 342 343 327 287 281 279 272 267 259 253 248 243 241 240 238 235 230 227 226 225 225 225 223 222 223 227 231 233 236 240 247 257 271 279 277 280 287 293 299 304
330 334 337 336 342 343 340 301 275 266 260 256 253 249 245 241 238 234 232 227 225 223 222 224 225 223 221 222 226 229 230 234 244 253 257 268 268 281 286 289 297 298 300
325 324 329 328 329 335 336 346 326 289 272 263 254 246 243 240 237 233 230 228 225 225 223 222 223 223 221 221 225 228 230 236 242 247 254 260 274 279 284 287 300 294 298
317 324 326 320 320 322 329 332 335 329 305 284 266 256 249 244 241 236 232 229 225 222 223 221 220 219 219 219 223 229 229 237 240 243 246 251 264 276 281 280 278 291 299
316 318 319 317 313 316 317 322 321 321 321 311 293 269 255 245 238 234 232 229 226 224 222 220 217 216 214 214 220 226 230 235 237 240 244 251 259 267 278 285 294 296 299
314 317 317 314 312 314 310 300 300 306 303 302 296 275 262 246 240 236 232 227 225 223 222 219 214 213 212 212 217 217 224 236 233 234 231 236 241 262 281 288 295 301 310
313 315 315 311 306 309 304 300 294 293 289 284 279 281 266 260 253 246 239 236 231 224 220 219 216 211 209 209 211 210 216 218 224 225 224 232 244 259 275 287 294 312 323
313 314 310 310 307 304 294 297 300 290 292 276 265 255 252 256 252 250 251 246 243 237 229 223 218 214 211 210 211 215 218 219 222 217 218 225 245 262 272 288 307 320 327
308 310 309 307 304 301 295 285 280 287 285 285 270 257 251 250 243 239 237 232 234 232 230 229 223 217 220 209 204 209 207 207 219 208 212 220 241 261 284 300 315 328 329
Wind_Speed_850mb
116 114 99 80 76 83 93 93 91 85 85 86 86 86 86 84 82 76 72 70 65 61 58 55 51 44 38 32 29 29 32 34 38 44 44 35 19 7 7 38 13 29 18
107 111 96 72 63 69 82 94 97 90 86 88 88 86 85 85 81 76 75 72 68 64 61 60 56 48 41 33 27 28 32 34 34 36 41 25 19 13 45 10 24 15 26
108 107 93 72 63 71 75 87 94 90 85 85 87 86 83 80 81 83 83 79 73 69 66 64 59 52 46 35 26 28 32 31 31 29 21 12 10 56 11 39 30 47 41
100 94 80 64 62 63 69 79 89 85 82 83 86 92 89 90 92 90 87 82 77 73 71 68 63 57 49 38 30 28 35 34 31 30 28 25 29 21 35 42 58 48 55
92 85 69 51 50 58 67 73 81 79 80 82 83 87 88 84 84 87 85 81 80 78 74 71 67 63 55 44 35 28 34 35 33 33 32 30 27 27 26 62 73 65 61
77 72 41 37 49 58 63 70 76 77 78 77 83 85 82 84 87 88 86 86 85 83 79 74 71 65 59 49 38 31 33 34 33 33 34 35 32 31 32 45 59 64 71
73 68 40 44 53 56 62 70 75 77 77 79 80 81 83 86 86 87 85 86 89 91 87 80 77 72 61 52 43 35 33 36 36 34 34 34 32 32 37 45 57 60 78
77 60 38 44 48 56 64 70 73 76 82 83 83 83 83 85 86 87 87 88 87 86 84 80 77 72 65 58 48 38 34 37 39 38 36 33 32 32 34 43 53 73 60
68 47 46 46 48 55 62 66 70 74 82 88 89 87 86 90 90 86 88 89 84 84 79 79 78 74 69 61 53 43 36 40 43 42 39 35 35 35 36 41 46 51 52
41 41 37 37 41 46 54 59 67 76 84 89 90 91 90 91 90 86 87 89 89 86 79 82 81 76 70 63 55 47 41 44 46 46 41 38 37 37 39 43 47 50 58
10 11 18 28 33 40 50 57 70 82 85 84 91 97 98 99 98 93 89 90 90 88 83 85 84 79 72 65 59 53 49 49 48 47 42 40 36 37 40 46 51 56 60
17 14 19 23 33 45 55 61 70 80 78 80 91 95 103 106 107 104 98 95 94 88 84 87 86 82 76 70 65 59 54 52 49 46 43 39 37 39 42 49 55 59 61
55 54 73 69 66 75 80 74 80 76 73 87 94 97 101 109 113 112 107 102 98 90 89 91 91 88 80 75 69 63 58 55 51 46 43 39 37 40 46 50 57 60 65
82 77 83 88 86 85 98 89 77 71 80 87 93 96 100 104 108 111 111 108 103 94 95 96 93 90 83 79 75 68 61 56 52 47 44 40 37 41 47 55 58 59 63
66 81 90 85 84 86 89 79 77 84 83 89 99 98 94 98 106 107 103 105 103 96 93 94 96 93 91 87 79 72 63 59 54 49 44 42 38 43 50 54 55 57 61
55 64 75 89 83 91 102 110 106 98 100 104 106 104 103 99 105 99 100 100 96 92 91 97 100 99 96 88 81 74 66 60 55 50 47 40 41 42 47 50 46 48 50
66 73 81 78 76 87 94 105 105 107 98 106 109 107 103 105 100 97 96 96 93 91 95 103 104 102 95 88 84 76 66 60 54 51 47 39 40 44 46 43 47 43 43
82 80 86 94 95 81 79 81 92 92 94 98 101 100 102 99 92 94 94 91 92 94 99 104 104 101 97 93 86 78 67 59 54 51 42 39 41 42 39 44 47 50 53
71 76 90 91 90 89 82 57 59 71 75 78 79 85 91 91 92 93 93 92 94 96 100 101 103 102 96 92 84 74 65 57 49 45 44 39 41 33 38 41 46 53 63
70 85 86 95 93 86 93 86 54 45 55 63 72 80 85 88 84 86 88 88 89 92 99 99 100 98 96 89 80 74 62 51 51 51 42 41 31 36 34 35 43 62 69
89 86 92 86 84 88 82 80 75 59 50 53 61 69 73 77 77 78 78 82 89 94 98 96 97 99 93 81 75 72 58 56 56 49 42 31 29 32 34 32 47 55 57
83 77 85 89 88 71 77 83 75 65 56 51 50 55 60 65 70 73 75 79 85 89 95 95 96 97 90 81 76 69 55 61 51 46 37 27 28 29 29 37 42 45 49
87 82 76 86 89 77 70 72 77 70 61 55 51 46 50 58 60 64 72 77 82 88 94 97 102 100 94 85 80 65 63 65 56 50 35 34 28 21 24 32 39 41 42
88 91 90 89 92 83 83 83 80 62 67 67 59 53 50 53 53 57 65 71 83 92 96 101 106 106 99 89 79 68 60 53 50 44 31 28 21 19 20 28 32 34 40
98 92 95 100 98 86 81 80 84 73 70 74 69 66 70 71 68 64 64 72 82 91 95 103 110 111 103 91 71 65 64 55 45 37 33 26 19 22 25 27 30 35 41
95 99 100 98 100 93 90 84 80 76 76 75 78 75 72 80 78 78 79 84 91 92 95 97 104 103 91 79 71 64 56 48 48 37 30 22 22 24 27 29 30 34 42
Wind_Direction_850mb
272 274 275 274 264 256 250 243 237 235 228 224 223 223 225 225 225 224 226 227 228 229 230 231 233 235 242 254 269 284 292 297 304 310 310 320 313 266 132 319 316 320 348
271 274 276 275 264 253 249 242 234 234 228 226 226 226 227 226 228 226 228 228 229 229 230 231 231 232 237 249 266 283 288 293 306 322 330 329 316 211 312 290 321 324 323
271 273 276 272 262 253 246 243 235 231 227 225 223 225 226 227 226 225 226 227 227 228 229 230 230 231 234 241 257 282 289 294 306 318 325 327 300 317 265 315 327 323 320
273 275 277 269 258 254 244 238 232 229 226 226 226 226 226 224 226 228 229 227 226 228 229 230 230 231 233 237 246 266 283 287 296 307 311 306 305 318 314 308 319 319 319
278 278 278 266 251 247 244 235 226 225 227 228 229 229 228 230 234 233 231 229 229 228 230 230 230 230 232 234 242 257 276 279 287 299 304 300 298 297 287 306 318 317 322
278 281 259 238 238 239 238 230 224 224 228 229 229 229 230 231 232 233 230 229 230 229 229 230 231 231 232 235 241 251 268 273 279 289 297 299 299 300 293 292 302 311 318
262 279 254 236 228 231 231 226 223 225 227 226 227 227 229 232 233 236 234 232 230 230 228 228 229 231 233 235 237 245 262 275 282 290 292 292 289 294 297 297 304 308 314
278 266 242 244 229 227 225 226 226 229 227 224 223 224 226 231 234 237 237 236 237 237 233 230 229 228 230 232 235 245 260 272 280 285 286 280 281 285 292 300 309 316 314
275 266 246 233 223 230 231 231 231 231 230 229 226 225 228 231 232 235 237 238 239 239 236 235 232 229 229 231 233 239 253 268 276 278 278 277 280 285 292 299 304 308 309
279 258 232 228 232 240 242 239 237 237 236 232 233 232 230 232 234 235 237 238 239 239 235 233 232 230 230 230 231 237 245 256 264 272 272 271 276 285 292 297 300 301 300
311 230 227 236 247 251 247 242 241 239 238 237 238 238 235 236 235 236 236 238 239 240 235 231 230 230 231 230 232 237 245 253 260 265 266 267 273 281 289 293 297 297 297
238 264 284 277 274 266 253 251 245 243 241 244 244 244 242 242 240 238 237 237 237 236 235 230 229 230 229 230 233 237 244 251 257 259 261 263 271 280 285 290 293 294 296
274 286 292 288 284 279 272 262 248 239 243 246 247 245 246 246 244 242 241 239 237 234 231 229 229 229 228 229 233 236 242 250 254 255 256 257 264 277 286 291 293 295 295
278 286 286 284 284 284 278 264 255 254 254 251 250 246 247 249 248 245 242 239 238 234 231 230 228 228 228 229 231 234 239 247 251 253 252 256 267 279 289 292 293 293 297
280 285 281 281 282 279 270 257 259 255 255 253 249 247 251 250 249 245 243 240 237 234 231 228 226 227 227 228 229 232 238 243 247 250 250 257 271 281 288 291 289 295 296
330 326 307 294 283 275 272 272 269 269 265 253 252 248 247 247 246 243 240 237 233 231 229 226 226 225 226 226 228 232 236 241 245 248 249 258 270 285 288 284 289 289 295
2 354 349 345 320 294 285 278 272 271 264 257 252 247 247 244 243 241 236 233 231 228 227 225 225 224 225 225 228 233 235 239 244 248 252 262 279 283 281 284 288 291 285
339 337 335 342 343 327 287 281 279 272 267 259 253 248 243 241 240 238 235 230 227 226 225 225 225 223 222 223 227 231 233 236 240 247 257 271 279 277 280 287 293 299 304
330 334 337 336 342 343 340 301 275 266 260 256 253 249 245 241 238 234 232 227 225 223 222 224 225 223 221 222 226 229 230 234 244 253 257 268 268 281 286 289 297 298 300
325 324 329 328 329 335 336 346 326 289 272 263 254 246 243 240 237 233 230 228 225 225 223 222 223 223 221 221 225 228 230 236 242 247 254 260 274 279 284 287 300 294 298
317 324 326 320 320 322 329 332 335 329 305 284 266 256 249 244 241 236 232 229 225 222 223 221 220 219 219 219 223 229 229 237 240 243 246 251 264 276 281 280 278 291 299
316 318 319 317 313 316 317 322 321 321 321 311 293 269 255 245 238 234 232 229 226 224 222 220 217 216 214 214 220 226 230 235 237 240 244 251 259 267 278 285 294 296 299
314 317 317 314 312 314 310 300 300 306 303 302 296 275 262 246 240 236 232 227 225 223 222 219 214 213 212 212 217 217 224 236 233 234 231 236 241 262 281 288 295 301 310
313 315 315 311 306 309 304 300 294 293 289 284 279 281 266 260 253 246 239 236 231 224 220 219 216 211 209 209 211 210 216 218 224 225 224 232 244 259 275 287 294 312 323
313 314 310 310 307 304 294 297 300 290 292 276 265 255 252 256 252 250 251 246 243 237 229 223 218 214 211 210 211 215 218 219 222 217 218 225 245 262 272 288 307 320 327
308 310 309 307 304 301 295 285 280 287 285 285 270 257 251 250 243 239 237 232 234 232 230 229 223 217 220 209 204 209 207 207 219 208 212 220 241 261 284 300 315 328 329